Oscoda, MI

12:22 AM EST on December 15, 2019 (GMT -0500)
Oscoda-Wurtsmith

Weather History for KOSC - October, 2019

Change the Weather History Date:

Wednesday, October 9, 2019

  Actual Average Record
Temperature  
Mean Temperature 50 °F -  
Max Temperature 64 °F 59 °F 83 °F (2018)
Min Temperature 36 °F 40 °F 32 °F (2014)
Degree Days  
Heating Degree Days 15    
Moisture  
Dew Point 47 °F    
Average Humidity 86    
Maximum Humidity 100    
Minimum Humidity 60    
Precipitation  
Precipitation 0.00 in - - ()
Sea Level Pressure  
Sea Level Pressure 30.26 in    
Wind  
Wind Speed 3 mph (ESE)    
Max Wind Speed 10 mph    
Max Gust Speed -    
Visibility 7 miles    
Events Fog    
Averages and records for this station are not official NWS values.
T = Trace of Precipitation, MM = Missing Value Source: NWS Daily Summary

Daily Weather History Graph

Daily Weather History Graph

Search for Another Location

Airport or City:

Astronomy

Oct. 09, 2019 Rise Set
Actual Time 7:40 AM EDT 7:00 PM EDT
Civil Twilight 7:11 AM EDT 7:29 PM EDT
Nautical Twilight 6:38 AM EDT 8:02 PM EDT
Astronomical Twilight 6:04 AM EDT 8:36 PM EDT
Moon 5:43 PM EDT (10/9) 3:12 AM EDT (10/9)
Length of Visible Light 12h 17m
Length of Day
11h 19m
Waxing Gibbous, 85% of the Moon is Illuminated
Oct 9
Waxing Gibbous
Oct 13
Full
Oct 21
Last Quarter
Oct 27
New
Nov 4
First Quarter

Hourly Weather History & Observations

Time (EDT) Temp. Windchill Dew Point Humidity Pressure Visibility Wind Dir Wind Speed Gust Speed Precip Events Conditions
12:00 AM 41.4 °F - 38.3 °F 89% 30.24 in 10.0 mi Calm Calm - N/A   Mostly Cloudy
12:18 AM 40.6 °F - 38.8 °F 93% 30.23 in 2.0 mi Calm Calm - N/A   Overcast
12:36 AM 41.0 °F - 40.1 °F 97% 30.23 in 1.2 mi Calm Calm - N/A   Overcast
12:55 AM 41.0 °F - 40.1 °F 97% 30.23 in 5.0 mi Calm Calm - N/A   Scattered Clouds
1:15 AM 39.7 °F - 39.6 °F 99% 30.23 in 7.0 mi Calm Calm - N/A   Clear
1:16 AM 39.7 °F - 39.6 °F 99% 30.23 in 7.0 mi Calm Calm - N/A   Clear
1:39 AM 39.9 °F - 39.9 °F 100% 30.23 in 0.5 mi Calm Calm - N/A Fog Fog
1:57 AM 39.6 °F - 39.6 °F 100% 30.23 in 0.8 mi Calm Calm - N/A   Overcast
2:15 AM 39.7 °F - 39.7 °F 100% 30.24 in 10.0 mi Calm Calm - N/A   Mostly Cloudy
2:35 AM 39.9 °F - 39.4 °F 98% 30.24 in 10.0 mi Calm Calm - N/A   Overcast
2:36 AM 39.9 °F - 39.6 °F 99% 30.24 in 7.0 mi Calm Calm - N/A   Overcast
2:55 AM 39.4 °F - 39.4 °F 100% 30.25 in 0.2 mi Calm Calm - N/A Fog Fog
3:00 AM 39.2 °F - 39.2 °F 100% 30.25 in 0.2 mi Calm Calm - N/A Fog Fog
3:18 AM 39.9 °F - 39.9 °F 100% 30.25 in 1.2 mi Calm Calm - N/A   Mist
3:36 AM 39.0 °F - 39.0 °F 100% 30.25 in 0.2 mi Calm Calm - N/A Fog Fog
3:55 AM 39.4 °F - 39.4 °F 100% 30.25 in 0.5 mi Calm Calm - N/A Fog Fog
4:15 AM 37.9 °F - 37.9 °F 100% 30.26 in 0.2 mi Calm Calm - N/A Fog Fog
4:16 AM 37.8 °F - 37.8 °F 100% 30.26 in 0.2 mi Calm Calm - N/A Fog Fog
4:39 AM 38.5 °F - 38.5 °F 100% 30.26 in 0.2 mi Calm Calm - N/A Fog Fog
4:57 AM 38.3 °F - 38.3 °F 100% 30.26 in 3.0 mi Calm Calm - N/A   Overcast
5:15 AM 37.0 °F - 37.0 °F 100% 30.26 in 0.5 mi Calm Calm - N/A Fog Fog
5:16 AM 37.0 °F - 37.0 °F 100% 30.26 in 0.5 mi Calm Calm - N/A Fog Fog
5:35 AM 36.7 °F - 36.7 °F 100% 30.27 in 0.5 mi Calm Calm - N/A Fog Fog
5:36 AM 36.7 °F - 36.7 °F 100% 30.27 in 0.5 mi Calm Calm - N/A Fog Fog
5:55 AM 36.7 °F - 36.7 °F 100% 30.28 in 0.2 mi Calm Calm - N/A Fog Fog
6:18 AM 36.7 °F - 36.7 °F 100% 30.28 in 0.5 mi Calm Calm - N/A Fog Fog
6:36 AM 36.1 °F - 36.1 °F 100% 30.28 in 2.0 mi Calm Calm - N/A   Overcast
6:55 AM 36.3 °F - 36.3 °F 100% 30.29 in 2.5 mi Calm Calm - N/A   Overcast
6:56 AM 36.3 °F - 36.3 °F 100% 30.29 in 2.5 mi Calm Calm - N/A   Overcast
7:15 AM 36.5 °F - 36.5 °F 100% 30.29 in 7.0 mi Calm Calm - N/A   Overcast
7:39 AM 37.0 °F - 37.0 °F 100% 30.30 in 7.0 mi Calm Calm - N/A   Overcast
7:57 AM 36.9 °F 34.3 °F 36.9 °F 100% 30.30 in 0.5 mi NNW 3.5 mph - N/A Fog Fog
8:15 AM 37.4 °F 34.9 °F 37.4 °F 100% 30.31 in 5.0 mi NW 3.5 mph - N/A   Mist
8:16 AM 37.4 °F 34.9 °F 37.4 °F 100% 30.31 in 5.0 mi NW 3.5 mph - N/A   Mist
8:35 AM 37.9 °F - 37.9 °F 100% 30.31 in 7.0 mi Calm Calm - N/A   Unknown
8:55 AM 41.0 °F - 41.0 °F 100% 30.31 in 10.0 mi Calm Calm - N/A   Unknown
9:18 AM 45.1 °F - 45.1 °F 100% 30.31 in 10.0 mi Calm Calm - N/A   Clear
9:36 AM 48.2 °F - 48.2 °F 100% 30.31 in 10.0 mi Calm Calm - N/A   Clear
9:55 AM 51.8 °F - 51.3 °F 98% 30.31 in 10.0 mi Calm Calm - N/A   Clear
9:56 AM 52.2 °F - 51.4 °F 97% 30.31 in 10.0 mi Calm Calm - N/A   Clear
10:39 AM 59.5 °F - 54.5 °F 83% 30.30 in 10.0 mi SE 4.6 mph - N/A   Clear
10:57 AM 60.6 °F - 54.1 °F 79% 30.30 in 10.0 mi SSE 6.9 mph - N/A   Clear
11:15 AM 60.8 °F - 53.6 °F 77% 30.30 in 10.0 mi ESE 5.8 mph - N/A   Clear
11:35 AM 62.6 °F - 53.6 °F 72% 30.30 in 10.0 mi ESE 6.9 mph - N/A   Clear
11:55 AM 62.2 °F - 53.2 °F 72% 30.29 in 10.0 mi ESE 6.9 mph - N/A   Clear
12:18 PM 62.6 °F - 54.0 °F 73% 30.29 in 10.0 mi SE 8.1 mph - N/A   Clear
12:36 PM 63.3 °F - 54.3 °F 72% 30.29 in 10.0 mi ESE 9.2 mph - N/A   Clear
12:55 PM 62.8 °F - 53.6 °F 72% 30.28 in 10.0 mi ESE 9.2 mph - N/A   Clear
12:56 PM 62.6 °F - 53.8 °F 73% 30.28 in 10.0 mi ESE 8.1 mph - N/A   Clear
1:15 PM 63.1 °F - 53.8 °F 71% 30.28 in 10.0 mi ESE 6.9 mph - N/A   Clear
1:39 PM 63.5 °F - 53.6 °F 70% 30.27 in 10.0 mi ESE 8.1 mph - N/A   Clear
1:57 PM 62.8 °F - 53.6 °F 72% 30.27 in 10.0 mi ESE 8.1 mph - N/A   Clear
2:15 PM 64.2 °F - 53.8 °F 69% 30.26 in 10.0 mi SE 5.8 mph - N/A   Clear
2:35 PM 63.7 °F - 54.0 °F 71% 30.26 in 10.0 mi ESE 6.9 mph - N/A   Clear
2:55 PM 64.0 °F - 53.6 °F 69% 30.25 in 10.0 mi ESE 6.9 mph - N/A   Clear
3:00 PM 64.0 °F - 53.1 °F 67% 30.25 in 10.0 mi ESE 8.1 mph - N/A   Clear
3:18 PM 62.8 °F - 53.6 °F 72% 30.25 in 10.0 mi ESE 9.2 mph - N/A   Clear
3:36 PM 62.8 °F - 53.4 °F 71% 30.24 in 10.0 mi ESE 9.2 mph - N/A   Clear
3:55 PM 62.6 °F - 53.6 °F 72% 30.24 in 10.0 mi ESE 8.1 mph - N/A   Clear
4:15 PM 62.6 °F - 52.9 °F 70% 30.24 in 10.0 mi ESE 8.1 mph - N/A   Clear
4:16 PM 62.6 °F - 52.9 °F 70% 30.24 in 10.0 mi ESE 8.1 mph - N/A   Clear
4:39 PM 62.1 °F - 52.2 °F 70% 30.23 in 10.0 mi ESE 9.2 mph - N/A   Clear
4:57 PM 61.5 °F - 51.6 °F 70% 30.23 in 10.0 mi ESE 8.1 mph - N/A   Clear
5:15 PM 61.7 °F - 51.1 °F 68% 30.23 in 10.0 mi ESE 6.9 mph - N/A   Clear
5:16 PM 61.7 °F - 51.1 °F 68% 30.23 in 10.0 mi ESE 8.1 mph - N/A   Clear
5:35 PM 61.7 °F - 48.0 °F 61% 30.23 in 10.0 mi ESE 10.4 mph - N/A   Clear
5:36 PM 61.7 °F - 47.7 °F 60% 30.23 in 10.0 mi ESE 8.1 mph - N/A   Clear
5:55 PM 61.2 °F - 48.0 °F 62% 30.23 in 10.0 mi ESE 10.4 mph - N/A   Clear
6:18 PM 60.3 °F - 47.7 °F 63% 30.23 in 10.0 mi ESE 9.2 mph - N/A   Clear
6:35 PM 59.5 °F - 47.7 °F 65% 30.22 in 10.0 mi ESE 8.1 mph - N/A   Clear
6:55 PM 58.6 °F - 49.6 °F 72% 30.22 in 10.0 mi ESE 8.1 mph - N/A   Clear
7:15 PM 58.1 °F - 51.1 °F 77% 30.23 in 10.0 mi ESE 8.1 mph - N/A   Clear
7:20 PM 58.1 °F - 51.3 °F 78% 30.23 in 10.0 mi ESE 8.1 mph - N/A   Clear
7:38 PM 57.6 °F - 51.4 °F 80% 30.23 in 10.0 mi ESE 5.8 mph - N/A   Clear
7:56 PM 57.2 °F - 51.4 °F 81% 30.24 in 10.0 mi East 5.8 mph - N/A   Clear
8:15 PM 57.2 °F - 50.4 °F 78% 30.24 in 10.0 mi East 5.8 mph - N/A   Clear
8:35 PM 57.2 °F - 50.9 °F 79% 30.23 in 10.0 mi East 5.8 mph - N/A   Clear
8:36 PM 57.2 °F - 50.9 °F 79% 30.23 in 10.0 mi East 5.8 mph - N/A   Clear
8:59 PM 57.0 °F - 52.0 °F 83% 30.24 in 10.0 mi East 4.6 mph - N/A   Clear
9:17 PM 56.7 °F - 52.3 °F 85% 30.24 in 10.0 mi East 4.6 mph - N/A   Clear
9:35 PM 56.8 °F - 52.7 °F 86% 30.24 in 10.0 mi East 5.8 mph - N/A   Clear
9:36 PM 56.8 °F - 52.7 °F 86% 30.24 in 10.0 mi East 5.8 mph - N/A   Clear
9:55 PM 57.2 °F - 52.3 °F 84% 30.24 in 10.0 mi East 6.9 mph - N/A   Clear
9:56 PM 57.2 °F - 52.3 °F 84% 30.24 in 10.0 mi East 6.9 mph - N/A   Clear
10:15 PM 57.6 °F - 52.7 °F 84% 30.24 in 10.0 mi East 8.1 mph - N/A   Clear
10:20 PM 57.6 °F - 52.7 °F 84% 30.24 in 10.0 mi ESE 6.9 mph - N/A   Clear
10:38 PM 57.7 °F - 52.7 °F 83% 30.24 in 10.0 mi ESE 6.9 mph - N/A   Clear
10:56 PM 57.4 °F - 53.1 °F 85% 30.25 in 10.0 mi ESE 5.8 mph - N/A   Clear
11:15 PM 57.2 °F - 53.6 °F 88% 30.25 in 10.0 mi ESE 4.6 mph - N/A   Clear
11:16 PM 57.2 °F - 53.6 °F 88% 30.25 in 10.0 mi ESE 5.8 mph - N/A   Clear
11:35 PM 57.4 °F - 53.8 °F 88% 30.25 in 10.0 mi ESE 4.6 mph - N/A   Clear
11:59 PM 58.1 °F - 51.3 °F 78% 30.26 in 10.0 mi SE 9.2 mph - N/A   Clear